Location: Albany
(35.0170°S, 117.8920°E)
Time: 01:21:05
(UTC+08:00)

Explorer 7 - Pass Details

Date: 22 January 2021
Orbit: 484 x 677 km, 50.3° (Epoch: 01 March)

Event Time Altitude Azimuth Distance (km) Brightness Sun altitude
Rises 00:38:37 0° 235° (SW) 2,778 10.7 -35.1°
Enters shadow 00:39:12 - 236° (WSW) 2,551 10.5 -35.0°
Reaches altitude 10° 00:41:01 10° 241° (WSW) 1,841 - -35.0°
Maximum altitude 00:45:01 46° 314° (NW) 725 - -34.9°
Drops below altitude 10° 00:48:45 10° 27° (NNE) 1,725 - -34.8°
Sets 00:50:56 0° 33° (NNE) 2,582 - -34.7°
